Time,TemperatureF,DewpointF,PressureIn,WindDirection,WindDirectionDegrees,WindSpeedMPH,WindSpeedGustMPH,Humidity,HourlyPrecipIn,Conditions,Clouds,dailyrainin,SoftwareType,DateUTC
2015-09-03 00:12:00,62.5,58.0,29.92,WNW,285,0.0,0.0,86,0.00,,,0.00,weatherlink.com 1.10,2015-09-03 07:12:00,
2015-09-03 00:27:00,62.2,58.0,29.92,WNW,285,0.0,0.0,86,0.00,,,0.00,weatherlink.com 1.10,2015-09-03 07:27:00,
2015-09-03 00:43:00,61.8,58.0,29.92,WNW,285,0.0,0.0,86,0.00,,,0.00,weatherlink.com 1.10,2015-09-03 07:43:00,
2015-09-03 00:58:00,61.7,58.0,29.92,WNW,285,0.0,0.0,86,0.00,,,0.00,weatherlink.com 1.10,2015-09-03 07:58:00,
2015-09-03 01:13:00,62.0,58.0,29.92,WNW,285,0.0,0.0,86,0.00,,,0.00,weatherlink.com 1.10,2015-09-03 08:13:00,
2015-09-03 01:28:00,62.1,58.0,29.92,WNW,285,0.0,0.0,86,0.00,,,0.00,weatherlink.com 1.10,2015-09-03 08:28:00,
2015-09-03 01:43:00,62.1,58.0,29.91,WNW,285,0.0,0.0,86,0.00,,,0.00,weatherlink.com 1.10,2015-09-03 08:43:00,
2015-09-03 01:58:00,62.0,58.0,29.91,WNW,285,0.0,0.0,86,0.00,,,0.00,weatherlink.com 1.10,2015-09-03 08:58:00,
2015-09-03 02:13:00,61.9,58.0,29.90,WNW,285,0.0,0.0,86,0.00,,,0.00,weatherlink.com 1.10,2015-09-03 09:13:00,
2015-09-03 02:28:00,62.0,58.0,29.90,WNW,285,0.0,0.0,86,0.00,,,0.00,weatherlink.com 1.10,2015-09-03 09:28:00,
2015-09-03 02:43:00,62.4,58.0,29.90,WNW,285,0.0,0.0,86,0.00,,,0.00,weatherlink.com 1.10,2015-09-03 09:43:00,
2015-09-03 02:58:00,62.5,58.0,29.90,WNW,285,0.0,0.0,86,0.00,,,0.00,weatherlink.com 1.10,2015-09-03 09:58:00,
2015-09-03 03:13:00,62.6,58.0,29.90,WNW,286,0.0,1.0,86,0.00,,,0.00,weatherlink.com 1.10,2015-09-03 10:13:00,
2015-09-03 03:28:00,62.9,59.0,29.89,WNW,286,0.0,0.0,86,0.00,,,0.00,weatherlink.com 1.10,2015-09-03 10:28:00,
2015-09-03 03:43:00,63.3,59.0,29.90,WNW,287,0.0,0.0,86,0.00,,,0.00,weatherlink.com 1.10,2015-09-03 10:43:00,
2015-09-03 03:58:00,63.4,59.0,29.90,WNW,287,0.0,0.0,86,0.00,,,0.00,weatherlink.com 1.10,2015-09-03 10:58:00,
2015-09-03 04:13:00,63.8,60.0,29.89,WNW,286,0.0,0.0,86,0.00,,,0.00,weatherlink.com 1.10,2015-09-03 11:13:00,
2015-09-03 04:28:00,64.1,60.0,29.89,WNW,287,0.0,0.0,85,0.00,,,0.00,weatherlink.com 1.10,2015-09-03 11:28:00,
2015-09-03 04:43:00,64.3,60.0,29.89,WNW,286,0.0,0.0,85,0.00,,,0.00,weatherlink.com 1.10,2015-09-03 11:43:00,
2015-09-03 04:58:00,64.5,60.0,29.89,WNW,286,0.0,0.0,85,0.00,,,0.00,weatherlink.com 1.10,2015-09-03 11:58:00,
2015-09-03 05:13:00,64.7,60.0,29.89,WNW,287,0.0,0.0,85,0.00,,,0.00,weatherlink.com 1.10,2015-09-03 12:13:00,
2015-09-03 05:28:00,64.9,60.0,29.90,WNW,286,0.0,0.0,85,0.00,,,0.00,weatherlink.com 1.10,2015-09-03 12:28:00,
2015-09-03 05:43:00,65.1,61.0,29.90,WNW,286,0.0,0.0,85,0.00,,,0.00,weatherlink.com 1.10,2015-09-03 12:43:00,
2015-09-03 05:58:00,65.3,61.0,29.90,WNW,286,0.0,0.0,85,0.00,,,0.00,weatherlink.com 1.10,2015-09-03 12:58:00,
2015-09-03 06:13:00,65.3,61.0,29.90,WNW,287,0.0,0.0,85,0.00,,,0.00,weatherlink.com 1.10,2015-09-03 13:13:00,
2015-09-03 06:28:00,65.6,61.0,29.90,WNW,286,0.0,0.0,85,0.00,,,0.00,weatherlink.com 1.10,2015-09-03 13:28:00,
2015-09-03 06:43:00,65.7,61.0,29.90,WNW,288,0.0,0.0,85,0.00,,,0.00,weatherlink.com 1.10,2015-09-03 13:43:00,
2015-09-03 06:58:00,65.9,61.0,29.91,WNW,288,0.0,0.0,85,0.00,,,0.00,weatherlink.com 1.10,2015-09-03 13:58:00,
2015-09-03 07:13:00,66.1,62.0,29.91,WNW,288,0.0,0.0,85,0.00,,,0.00,weatherlink.com 1.10,2015-09-03 14:13:00,
2015-09-03 07:28:00,66.5,62.0,29.91,ENE,68,0.0,1.0,84,0.00,,,0.00,weatherlink.com 1.10,2015-09-03 14:28:00,
2015-09-03 07:43:00,67.0,62.0,29.91,ENE,67,0.0,1.0,84,0.00,,,0.00,weatherlink.com 1.10,2015-09-03 14:43:00,
2015-09-03 07:58:00,67.7,62.0,29.92,NNE,12,0.0,1.0,83,0.00,,,0.00,weatherlink.com 1.10,2015-09-03 14:58:00,
2015-09-03 08:13:00,67.8,62.0,29.91,NE,56,0.0,0.0,82,0.00,,,0.00,weatherlink.com 1.10,2015-09-03 15:13:00,
2015-09-03 08:28:00,68.5,63.0,29.92,ENE,75,0.0,1.0,82,0.00,,,0.00,weatherlink.com 1.10,2015-09-03 15:28:00,
2015-09-03 08:43:00,69.5,63.0,29.92,ENE,68,0.0,1.0,79,0.00,,,0.00,weatherlink.com 1.10,2015-09-03 15:43:00,
2015-09-03 08:58:00,70.5,63.0,29.92,NE,49,0.0,0.0,78,0.00,,,0.00,weatherlink.com 1.10,2015-09-03 15:58:00,
2015-09-03 09:13:00,71.0,63.0,29.92,NE,38,0.0,1.0,75,0.00,,,0.00,weatherlink.com 1.10,2015-09-03 16:13:00,
2015-09-03 09:28:00,71.9,63.0,29.92,NE,40,0.0,0.0,73,0.00,,,0.00,weatherlink.com 1.10,2015-09-03 16:28:00,
2015-09-03 09:44:00,72.4,63.0,29.92,North,11,0.0,1.0,72,0.00,,,0.00,weatherlink.com 1.10,2015-09-03 16:44:00,
2015-09-03 09:59:00,73.4,63.0,29.92,East,93,2.0,3.0,71,0.00,,,0.00,weatherlink.com 1.10,2015-09-03 16:59:00,
2015-09-03 10:14:00,74.9,64.0,29.91,WNW,297,2.0,3.0,69,0.00,,,0.00,weatherlink.com 1.10,2015-09-03 17:14:00,
2015-09-03 10:29:00,74.8,64.0,29.91,NW,304,2.0,2.0,69,0.00,,,0.00,weatherlink.com 1.10,2015-09-03 17:29:00,
2015-09-03 10:44:00,74.9,64.0,29.91,North,354,0.0,3.0,68,0.00,,,0.00,weatherlink.com 1.10,2015-09-03 17:44:00,
2015-09-03 10:59:00,75.5,64.0,29.91,WNW,294,1.0,5.0,67,0.00,,,0.00,weatherlink.com 1.10,2015-09-03 17:59:00,
2015-09-03 11:14:00,74.5,64.0,29.91,NW,314,0.0,3.0,69,0.00,,,0.00,weatherlink.com 1.10,2015-09-03 18:14:00,
2015-09-03 11:29:00,75.0,63.0,29.90,WNW,299,0.0,4.0,67,0.00,,,0.00,weatherlink.com 1.10,2015-09-03 18:29:00,
2015-09-03 11:44:00,74.6,63.0,29.90,WNW,287,2.0,5.0,67,0.00,,,0.00,weatherlink.com 1.10,2015-09-03 18:44:00,
2015-09-03 11:59:00,75.1,63.0,29.90,NW,309,1.0,4.0,67,0.00,,,0.00,weatherlink.com 1.10,2015-09-03 18:59:00,
2015-09-03 12:14:00,75.2,63.0,29.89,West,264,1.0,5.0,67,0.00,,,0.00,weatherlink.com 1.10,2015-09-03 19:14:00,
2015-09-03 12:29:00,75.6,63.0,29.88,NNW,329,0.0,5.0,65,0.00,,,0.00,weatherlink.com 1.10,2015-09-03 19:29:00,
2015-09-03 12:44:00,75.4,63.0,29.88,West,280,1.0,5.0,66,0.00,,,0.00,weatherlink.com 1.10,2015-09-03 19:44:00,
2015-09-03 12:59:00,75.7,63.0,29.87,West,278,0.0,4.0,65,0.00,,,0.00,weatherlink.com 1.10,2015-09-03 19:59:00,
2015-09-03 13:14:00,75.9,62.0,29.87,West,263,1.0,5.0,63,0.00,,,0.00,weatherlink.com 1.10,2015-09-03 20:14:00,
2015-09-03 13:29:00,75.7,63.0,29.86,NW,319,1.0,4.0,64,0.00,,,0.00,weatherlink.com 1.10,2015-09-03 20:29:00,
2015-09-03 13:44:00,75.7,63.0,29.86,West,274,2.0,4.0,64,0.00,,,0.00,weatherlink.com 1.10,2015-09-03 20:44:00,
2015-09-03 13:59:00,75.8,63.0,29.86,NW,316,2.0,5.0,64,0.00,,,0.00,weatherlink.com 1.10,2015-09-03 20:59:00,
2015-09-03 14:14:00,76.1,63.0,29.85,WNW,283,1.0,4.0,63,0.00,,,0.00,weatherlink.com 1.10,2015-09-03 21:14:00,